User: anonymous   Login
Location: Dead Woman Crossing
(43.5369°N, 106.3228°W)
Time: 12:09:45
(UTC+00:00)
Language:

CZ-4C DEB - Orbit

View from above orbital plane
View from above orbital plane
View from above satellite
View from above satellite

Ground track
Ground track

The orbit data is extracted from the following two-line orbital elements,

1 37568U 10038D   22340.55547358  .00001864  00000-0  38928-3 0  9996
2 37568  97.9404  97.9491 0176812  19.1635 341.6102 14.51641307647267
Epoch (UTC): 06 December 2022 13:19:52
Eccentricity: 0.0176812
inclination: 97.9404°
perigee height: 595 km
apogee height: 846 km
right ascension of ascending node: 97.9491°
argument of perigee: 19.1635°
revolutions per day: 14.51641307
mean anomaly at epoch: 341.6102°
orbit number at epoch: 64726

The dashed part of the orbit path shows where the satellite is in the earth's shadow,  

DLR